TimePST,TemperatureF,Dew PointF,Humidity,Sea Level PressureIn,VisibilityMPH,Wind Direction,Wind SpeedMPH,Gust SpeedMPH,PrecipitationIn,Events,Conditions,WindDirDegrees,DateUTC
12:52 AM,39.9,30.9,70,29.98,-9999.0,NE,6.9,-,N/A,,Unknown,50,2011-12-31 08:52:00
1:52 AM,39.0,30.0,70,29.97,-9999.0,NE,6.9,-,N/A,,Unknown,50,2011-12-31 09:52:00
2:52 AM,39.9,30.0,68,29.96,-9999.0,NE,5.8,-,N/A,,Unknown,40,2011-12-31 10:52:00
3:52 AM,41.0,30.9,67,29.95,-9999.0,ENE,4.6,-,N/A,,Unknown,60,2011-12-31 11:52:00
4:52 AM,37.9,27.0,65,29.96,-9999.0,NE,4.6,-,N/A,,Unknown,40,2011-12-31 12:52:00
5:52 AM,37.9,26.1,62,29.99,-9999.0,Calm,Calm,-,N/A,,Unknown,0,2011-12-31 13:52:00
6:52 AM,35.1,26.1,70,30.02,-9999.0,ENE,3.5,-,N/A,,Unknown,70,2011-12-31 14:52:00
7:52 AM,42.1,30.0,62,30.04,-9999.0,Calm,Calm,-,N/A,,Unknown,0,2011-12-31 15:52:00
8:52 AM,55.0,39.0,55,30.04,-9999.0,Calm,Calm,-,N/A,,Unknown,0,2011-12-31 16:52:00
9:52 AM,71.1,26.1,19,30.02,-9999.0,ENE,17.3,25.3,N/A,,Unknown,60,2011-12-31 17:52:00
10:52 AM,73.9,21.0,14,30.01,-9999.0,NE,17.3,-,N/A,,Unknown,50,2011-12-31 18:52:00
11:52 AM,75.0,23.0,14,29.98,-9999.0,East,9.2,-,N/A,,Unknown,90,2011-12-31 19:52:00
12:52 PM,77.0,19.0,11,29.95,-9999.0,ENE,13.8,-,N/A,,Unknown,60,2011-12-31 20:52:00
1:52 PM,73.9,19.0,13,29.95,-9999.0,ENE,19.6,-,N/A,,Unknown,60,2011-12-31 21:52:00
2:52 PM,72.0,16.0,12,29.97,-9999.0,ENE,17.3,24.2,N/A,,Unknown,70,2011-12-31 22:52:00
3:52 PM,69.1,19.0,15,29.98,-9999.0,ENE,16.1,24.2,N/A,,Unknown,70,2011-12-31 23:52:00
4:52 PM,63.0,18.0,18,30.02,-9999.0,NE,8.1,-,N/A,,Unknown,50,2012-01-01 00:52:00
5:52 PM,61.0,19.0,20,30.04,-9999.0,NE,10.4,-,N/A,,Unknown,40,2012-01-01 01:52:00
6:52 PM,59.0,19.0,21,30.07,-9999.0,ENE,11.5,-,N/A,,Unknown,70,2012-01-01 02:52:00
7:52 PM,57.9,19.0,22,30.07,-9999.0,NNE,4.6,-,N/A,,Unknown,30,2012-01-01 03:52:00
8:52 PM,52.0,21.0,30,30.07,-9999.0,Calm,Calm,-,N/A,,Unknown,0,2012-01-01 04:52:00
9:52 PM,57.0,19.0,23,30.05,-9999.0,Calm,Calm,-,N/A,,Unknown,0,2012-01-01 05:52:00
10:52 PM,61.0,15.1,17,30.05,-9999.0,ENE,11.5,-,N/A,,Unknown,70,2012-01-01 06:52:00
11:52 PM,60.1,15.1,17,30.05,-9999.0,Variable,3.5,-,N/A,,Unknown,0,2012-01-01 07:52:00